Regional Weather Roundup
Issued by NWS

Home | Current Version | Previous Version | Text Only | Print | Product List | Glossary Off
Versions: 1 2 3 4 5 6 7 8 9 10 11 12 13 14 15 16 17 18 19 20 21 22 23 24 25 26 27 28 29 30 31 32 33 34 35 36 37 38 39 40 41 42 43 44 45 46 47 48 49 50

000
ASUS45 KCYS 271310
RWRWY

WYOMING REGIONAL WEATHER ROUNDUP
NATIONAL WEATHER SERVICE CHEYENNE WY
700 AM MDT FRI MAY 27 2016

NOTE:  "FAIR" INDICATES FEW OR NO CLOUDS BELOW 12,000 FEET
WITH NO SIGNIFICANT WEATHER AND/OR OBSTRUCTIONS TO VISIBILITY.

WYZ001-271400-
YELLOWSTONE NATIONAL PARK

CITY           SKY/WX    TMP DP  RH WIND       PRES   REMARKS
LK YELLOWSTONE   N/A     33  31  92 CALM      30.07R
W YELLOWSTONE  NOT AVBL

$$
WYZ002>013-054>058-071-098>099-271400-
NORTHERN WYOMING

CITY           SKY/WX    TMP DP  RH WIND       PRES   REMARKS
JACKSON        MOSUNNY   36  36 100 CALM      30.03R
CODY           FAIR      46  37  71 SW5       29.93S
GREYBULL       FAIR      48  43  82 S3        29.92R
WORLAND        FAIR      46  43  89 S3        29.93R
SHERIDAN       FAIR      48  43  82 CALM      29.91S
BUFFALO          N/A     49  37  63 MISG      29.94R
GILLETTE       PTSUNNY   47  43  86 N3        29.92R
HULETT         DRIZZLE   48  45  87 S6        29.92S
NEWCASTLE      FAIR      50  36  57 N7        29.90S

$$
WYZ014>020-022>026-101>103-271400-
CENTRAL WYOMING

CITY           SKY/WX    TMP DP  RH WIND       PRES   REMARKS
BIG PINEY      PTSUNNY   39  35  86 NE6       30.04R WCI  35
PINEDALE       CLOUDY    36  36 100 CALM      30.05S
DUBOIS         FAIR      36  30  80 NW9       30.00S WCI  29
LANDER         PTSUNNY   45  36  70 CALM      29.95S
RIVERTON       FAIR      46  38  73 S3        29.97R
CASPER         PTSUNNY   41  37  86 W6        29.96R
DOUGLAS          N/A    N/A N/A N/A MISG      29.94S

$$
WYZ021-027>030-104>119-271400-
SOUTHERN WYOMING

CITY           SKY/WX    TMP DP  RH WIND       PRES   REMARKS
EVANSTON       FAIR      40  33  76 SW6       30.04R
KEMMERER         N/A     37  32  81 NW9       30.04R WCI  31
FORT BRIDGER   CLOUDY    45  39  81 W6        30.06R
ROCK SPRINGS   FAIR      42  41  96 W6        30.01S
DIXON          PTSUNNY   38  36  91 CALM      30.03R
RAWLINS        FAIR      41  35  79 CALM      30.00R
SARATOGA       PTSUNNY   39  37  93 N5        30.00S
LARAMIE        PTSUNNY   40  37  89 NW10      29.96S WCI  33
CHEYENNE       FAIR      46  36  68 N18G24    29.89R
TORRINGTON     CLOUDY    51  42  71 NW8       29.86R
PINE BLUFFS    CLOUDY    46  43  87 N13G22    29.88R

$$



USA.gov is the U.S. government's official web portal to all federal, state and local government web resources and services.